Date_and_time,latitude,longitude,wind_speed,RelWindDirFrom,WindDirFrom,air_pressure,air_temperature,relative_humidity,Temp,platform_speed_wrt_ground,air_pressure_at_mean_sea_level,platform_orientation
2019-12-06 00:00,50.630435,-96.980795,7.8,11.7,334,995.60,-10.8,74,0.93,0.0,1024.80,302.3
2019-12-06 00:10,50.63043,-96.9807516666667,8.9,12.0,335,995.81,-10.9,74,0.93,0.0,1025.02,302.3
2019-12-06 00:20,50.630455,-96.9808,9.0,13.2,342,995.97,-11.0,75,0.93,0.0,1025.20,302.3
2019-12-06 00:30,50.630425,-96.98077,7.5,10.5,339,996.12,-10.9,75,0.93,0.0,1025.36,302.3
2019-12-06 00:40,50.6304266666667,-96.9807716666667,9.9,13.8,331,996.22,-11.0,74,0.92,0.0,1025.46,302.3
2019-12-06 00:50,50.63038,-96.9807883333333,8.1,12.5,319,996.44,-11.1,74,0.92,0.0,1025.70,302.3
2019-12-06 01:00,50.6304333333333,-96.9807666666667,8.1,12.9,327,996.63,-11.0,74,0.92,0.0,1025.90,165.5
2019-12-06 01:10,50.6304366666667,-96.980775,9.3,14.4,326,996.73,-11.1,74,0.92,0.0,1026.02,165.5
2019-12-06 01:20,50.6304383333333,-96.98078,8.1,12.7,336,996.80,-11.1,74,0.91,0.0,1026.09,165.5
2019-12-06 01:30,50.63044,-96.9807816666667,8.6,12.5,330,996.86,-11.2,74,0.92,0.0,1026.16,165.5
2019-12-06 01:40,50.63044,-96.9807816666667,9.1,13.8,332,996.93,-11.2,74,0.92,0.0,1026.24,165.5
2019-12-06 01:50,50.6304266666667,-96.9807266666667,8.7,12.6,326,997.06,-11.2,74,0.91,0.0,1026.38,165.5
2019-12-06 02:00,50.6304433333333,-96.9807783333333,9.3,13.5,338,997.19,-11.3,74,0.91,0.0,1026.53,270.0
2019-12-06 02:10,50.6304366666667,-96.9807766666667,8.1,12.2,335,997.23,-11.4,74,0.91,0.0,1026.57,270.0
2019-12-06 02:20,50.6304366666667,-96.9807733333333,7.3,10.8,336,997.38,-11.4,75,0.91,0.0,1026.73,270.0
2019-12-06 02:30,50.6304383333333,-96.980775,8.2,12.0,332,997.30,-11.5,74,0.90,0.0,1026.65,270.0
2019-12-06 02:40,50.63044,-96.9807766666667,7.4,10.9,322,997.45,-11.6,74,0.91,0.0,1026.81,270.0
2019-12-06 02:50,50.63044,-96.9807766666667,8.9,11.8,338,997.62,-11.6,75,0.90,0.0,1026.99,270.0
2019-12-06 03:00,50.63044,-96.9807733333333,8.6,14.5,331,997.81,-11.6,75,0.90,0.0,1027.19,72.3
2019-12-06 03:10,50.6304416666667,-96.9807733333333,7.1,10.6,323,997.96,-11.7,75,0.89,0.0,1027.35,72.3
2019-12-06 03:20,50.63044,-96.9807633333333,7.9,11.2,338,997.97,-11.7,76,0.89,0.0,1027.36,72.3
2019-12-06 03:30,50.630445,-96.980765,7.4,10.4,339,997.96,-11.8,76,0.89,0.0,1027.36,72.3
2019-12-06 03:40,50.630445,-96.9807733333333,5.2,7.6,332,998.05,-11.8,76,0.89,0.0,1027.45,72.3
2019-12-06 03:50,50.6304433333333,-96.9807733333333,4.9,7.3,335,998.14,-11.9,76,0.89,0.0,1027.56,72.3
2019-12-06 04:00,50.6304383333333,-96.980765,5.5,7.4,335,998.23,-12.0,76,0.88,0.0,1027.66,360.0
2019-12-06 04:10,50.63044,-96.9807666666667,4.8,6.8,330,998.47,-12.0,76,0.88,0.0,1027.91,360.0
2019-12-06 04:20,50.6304383333333,-96.9807666666667,4.8,7.1,336,998.64,-12.1,76,0.89,0.0,1028.10,360.0
2019-12-06 04:30,50.63044,-96.9807633333333,4.2,5.5,348,998.67,-12.1,77,0.88,0.0,1028.13,360.0
2019-12-06 04:40,50.63044,-96.980765,4.4,5.9,0,998.69,-12.1,77,0.88,0.0,1028.15,360.0
2019-12-06 04:50,50.6304433333333,-96.9807633333333,3.1,4.7,331,998.86,-12.2,77,0.87,0.0,1028.34,360.0
2019-12-06 05:00,50.6304,-96.980765,2.9,3.9,313,998.98,-12.4,77,0.87,0.0,1028.48,151.2
2019-12-06 05:10,50.630425,-96.9807533333333,1.9,2.9,320,999.04,-12.5,78,0.87,0.0,1028.54,151.2
2019-12-06 05:20,50.630445,-96.98077,1.6,2.4,313,999.07,-12.6,78,0.88,0.0,1028.58,151.2
2019-12-06 05:30,50.6304416666667,-96.9807616666667,1.2,1.9,289,999.05,-12.6,78,0.87,0.0,1028.56,151.2
2019-12-06 05:40,50.6304416666667,-96.98076,1.1,1.8,302,998.95,-12.7,78,0.87,0.0,1028.46,151.2
2019-12-06 05:50,50.63044,-96.98076,1.2,2.6,11,998.76,-12.4,78,0.87,0.0,1028.27,151.2
2019-12-06 06:00,50.63044,-96.98076,0.4,1.2,326,998.74,-12.5,79,0.86,0.0,1028.25,90.0
2019-12-06 06:10,50.63044,-96.9807633333333,1.7,2.9,267,998.85,-12.8,79,0.86,0.0,1028.38,90.0
2019-12-06 06:20,50.6304383333333,-96.9807616666667,0.9,1.7,263,998.74,-13.0,80,0.86,0.0,1028.28,90.0
2019-12-06 06:30,50.6304383333333,-96.9807633333333,1.5,2.0,257,998.74,-13.1,80,0.86,0.0,1028.28,90.0
2019-12-06 06:40,50.6304383333333,-96.980765,2.5,2.9,242,998.76,-13.1,80,0.86,0.0,1028.32,90.0
2019-12-06 06:50,50.6304316666667,-96.9807566666667,2.2,2.7,233,998.69,-13.2,80,0.86,0.0,1028.27,90.0
2019-12-06 07:00,50.6304416666667,-96.980775,2.9,3.5,213,998.65,-13.6,81,0.86,0.0,1028.25,270.0
2019-12-06 07:10,50.6304433333333,-96.9807683333333,3.0,3.4,207,998.61,-13.6,82,0.86,0.0,1028.22,270.0
2019-12-06 07:20,50.630445,-96.9807683333333,3.0,3.8,205,998.58,-14.0,83,0.86,0.0,1028.21,270.0
2019-12-06 07:30,50.6304433333333,-96.980775,3.4,4.0,201,998.50,-14.1,83,0.86,0.0,1028.13,270.0
2019-12-06 07:40,50.6304433333333,-96.9807766666667,3.2,4.0,205,998.48,-14.1,84,0.85,0.0,1028.10,270.0
2019-12-06 07:50,50.6304283333333,-96.9807683333333,3.2,4.3,206,998.41,-14.1,84,0.85,0.0,1028.03,270.0
2019-12-06 08:00,50.6304383333333,-96.9807616666667,4.3,5.0,212,998.37,-14.2,84,0.85,0.0,1028.01,4.7
2019-12-06 08:10,50.63044,-96.9807616666667,4.1,5.4,216,998.43,-14.5,85,0.85,0.0,1028.11,4.7
2019-12-06 08:20,50.6304316666667,-96.9807666666667,4.0,5.1,216,998.49,-14.6,85,0.85,0.0,1028.18,4.7
2019-12-06 08:30,50.6304316666667,-96.9807683333333,4.4,5.2,213,998.52,-14.5,86,0.85,0.0,1028.21,4.7
2019-12-06 08:40,50.630435,-96.9807516666667,4.1,5.1,219,998.60,-14.5,85,0.85,0.0,1028.29,4.7
2019-12-06 08:50,50.63043,-96.9807616666667,3.4,4.4,219,998.63,-14.3,84,0.85,0.0,1028.33,4.7
2019-12-06 09:00,50.63043,-96.9807616666667,3.1,3.9,224,998.51,-14.3,83,0.85,0.0,1028.21,360.0
2019-12-06 09:10,50.6304316666667,-96.9807633333333,2.4,3.0,204,998.35,-14.3,84,0.85,0.0,1028.07,360.0
2019-12-06 09:20,50.630435,-96.9807583333333,2.6,3.4,188,998.17,-14.3,85,0.85,0.0,1027.89,360.0
2019-12-06 09:30,50.6304483333333,-96.9807866666667,3.0,3.7,185,998.00,-14.4,85,0.85,0.0,1027.72,360.0
2019-12-06 09:40,50.6304433333333,-96.9807833333333,3.5,4.3,184,997.91,-14.7,86,0.85,0.0,1027.65,360.0
2019-12-06 09:50,50.6304416666667,-96.9807783333333,3.3,4.3,196,997.84,-14.8,86,0.85,0.0,1027.59,360.0
2019-12-06 10:00,50.6304433333333,-96.9807766666667,3.5,4.6,190,997.67,-14.8,86,0.85,0.0,1027.43,0.0
2019-12-06 10:10,50.630445,-96.9807766666667,3.9,4.8,191,997.63,-14.8,86,0.85,0.0,1027.39,0.0
2019-12-06 10:20,50.630445,-96.980775,3.8,5.5,192,997.58,-14.6,85,0.85,0.0,1027.33,0.0
2019-12-06 10:30,50.6304183333333,-96.980765,4.9,5.8,191,997.52,-14.1,84,0.85,0.0,1027.23,0.0
2019-12-06 10:40,50.6304333333333,-96.98076,5.5,7.2,195,997.51,-13.7,83,0.85,0.0,1027.19,0.0
2019-12-06 10:50,50.630415,-96.9807633333333,7.2,9.0,189,997.28,-13.4,82,0.85,0.0,1026.93,0.0
2019-12-06 11:00,50.6304416666667,-96.9807733333333,9.2,11.3,186,997.06,-13.4,82,0.85,0.0,1026.70,270.0
2019-12-06 11:10,50.630445,-96.9807683333333,9.0,10.5,184,996.87,-13.3,81,0.86,0.0,1026.50,270.0
2019-12-06 11:20,50.6304433333333,-96.980765,8.9,11.8,193,996.93,-13.1,81,0.86,0.0,1026.56,270.0
2019-12-06 11:30,50.63044,-96.9807633333333,9.4,12.9,189,996.87,-13.1,81,0.86,0.0,1026.52,270.0
2019-12-06 11:40,50.6304383333333,-96.9807683333333,8.3,10.7,190,996.89,-13.2,81,0.85,0.0,1026.54,270.0
2019-12-06 11:50,50.6304183333333,-96.9807933333333,6.6,8.4,189,996.94,-13.2,82,0.85,0.0,1026.60,270.0
2019-12-06 12:00,50.6304116666667,-96.98079,7.4,9.1,190,996.88,-13.2,81,0.85,0.0,1026.54,245.1
2019-12-06 12:10,50.630425,-96.9807816666667,6.9,8.3,192,996.87,-13.2,82,0.85,0.0,1026.51,245.1
2019-12-06 12:20,50.6304316666667,-96.9807766666667,7.3,9.2,184,996.76,-13.2,82,0.85,0.0,1026.37,245.1
2019-12-06 12:30,50.6304316666667,-96.9807733333333,7.3,8.4,185,996.73,-13.1,82,0.85,0.0,1026.32,245.1
2019-12-06 12:40,50.6304316666667,-96.98077,7.7,9.7,184,996.71,-13.0,82,0.85,0.0,1026.27,245.1
2019-12-06 12:50,50.6304333333333,-96.98077,8.5,10.4,184,996.58,-12.8,83,0.85,0.0,1026.12,245.1
2019-12-06 13:00,50.6304333333333,-96.98077,8.2,10.2,188,996.59,-12.5,84,0.85,0.0,1026.11,138.7
2019-12-06 13:10,50.630435,-96.9807716666667,8.1,10.4,189,996.50,-12.2,85,0.84,0.0,1025.98,138.7
2019-12-06 13:20,50.630435,-96.9807716666667,9.4,11.7,187,996.31,-11.8,85,0.84,0.0,1025.78,138.7
2019-12-06 13:30,50.6304333333333,-96.9807816666667,9.2,12.1,188,996.15,-11.4,86,0.83,0.0,1025.59,138.7
2019-12-06 13:40,50.6304183333333,-96.9807783333333,10.0,13.4,186,996.05,-11.3,86,0.83,0.0,1025.47,138.7
2019-12-06 13:50,50.6304233333333,-96.9807766666667,9.1,11.1,189,995.97,-11.2,86,0.82,0.0,1025.39,138.7
2019-12-06 14:00,50.6304316666667,-96.980785,9.2,12.1,190,995.87,-11.2,86,0.82,0.0,1025.29,228.3
2019-12-06 14:10,50.6304316666667,-96.98077,8.8,11.7,191,995.79,-11.1,87,0.82,0.0,1025.21,228.3
2019-12-06 14:20,50.63043,-96.9807616666667,9.3,12.0,190,995.72,-11.1,87,0.82,0.0,1025.13,228.3
2019-12-06 14:30,50.6304316666667,-96.9807616666667,10.4,13.4,191,995.72,-11.1,87,0.82,0.0,1025.11,228.3
2019-12-06 14:40,50.6304316666667,-96.9807633333333,10.9,14.5,191,995.66,-11.2,88,0.82,0.0,1025.05,228.3
2019-12-06 14:50,50.6304316666667,-96.9807616666667,10.9,13.9,190,995.59,-11.3,88,0.81,0.0,1024.97,228.3
2019-12-06 15:00,50.63044,-96.9807833333333,11.7,14.9,192,995.52,-11.2,88,0.81,0.0,1024.87,13.3
2019-12-06 15:10,50.6304416666667,-96.9807733333333,11.1,14.3,192,995.48,-11.1,87,0.81,0.0,1024.81,13.3
2019-12-06 15:20,50.6304266666667,-96.9807583333333,11.0,14.3,191,995.45,-11.1,87,0.80,0.0,1024.75,13.3
2019-12-06 15:30,50.6304266666667,-96.9807633333333,11.1,14.6,190,995.35,-11.1,86,0.80,0.0,1024.64,13.3
2019-12-06 15:40,50.6304283333333,-96.9807633333333,10.4,12.8,190,995.27,-11.1,86,0.80,0.0,1024.55,13.3
2019-12-06 15:50,50.63043,-96.980765,11.1,14.3,188,995.21,-11.1,86,0.81,0.0,1024.49,13.3
2019-12-06 16:00,50.6304316666667,-96.980765,10.1,12.5,188,995.26,-11.0,86,0.81,0.0,1024.54,0.0
2019-12-06 16:10,50.6304333333333,-96.980765,10.1,12.0,187,995.26,-10.9,86,0.81,0.0,1024.52,0.0
2019-12-06 16:20,50.6304333333333,-96.980765,10.1,13.2,189,995.14,-10.7,85,0.81,0.0,1024.39,0.0
2019-12-06 16:30,50.6304333333333,-96.980765,10.2,13.7,191,995.10,-10.4,85,0.81,0.0,1024.34,0.0
2019-12-06 16:40,50.630435,-96.980765,9.5,11.3,186,995.03,-10.1,85,0.80,0.0,1024.25,0.0
2019-12-06 16:50,50.6304266666667,-96.9807766666667,10.2,13.7,188,994.96,-9.8,83,0.80,0.0,1024.16,0.0
2019-12-06 17:00,50.6304316666667,-96.9807766666667,10.5,14.2,189,994.86,-9.5,82,0.80,0.0,1024.04,90.0
2019-12-06 17:10,50.63044,-96.98077,11.2,15.4,190,994.66,-9.0,80,0.80,0.0,1023.80,90.0
2019-12-06 17:20,50.6304366666667,-96.980765,11.7,14.8,188,994.41,-8.6,79,0.80,0.0,1023.53,90.0
2019-12-06 17:30,50.6304283333333,-96.9807683333333,12.4,15.3,186,994.23,-8.3,78,0.81,0.0,1023.32,90.0
2019-12-06 17:40,50.630425,-96.9807616666667,14.2,17.3,188,994.02,-8.1,77,0.81,0.0,1023.09,90.0
2019-12-06 17:50,50.6304283333333,-96.980765,14.2,18.1,192,993.82,-8.1,77,0.82,0.0,1022.89,90.0
2019-12-06 18:00,50.63043,-96.9807666666667,15.8,20.2,197,993.68,-8.5,75,0.82,0.0,1022.75,148.9
2019-12-06 18:10,50.63043,-96.9807683333333,14.7,19.0,193,993.52,-8.6,76,0.82,0.0,1022.58,148.9
2019-12-06 18:20,50.63043,-96.9807716666667,13.8,17.9,195,993.34,-8.3,76,0.82,0.0,1022.37,148.9
2019-12-06 18:30,50.6304316666667,-96.9807733333333,14.6,18.8,190,993.22,-8.1,76,0.82,0.0,1022.21,148.9
2019-12-06 18:40,50.6304333333333,-96.9807733333333,12.6,16.4,194,993.07,-7.9,75,0.82,0.0,1022.04,148.9
2019-12-06 18:50,50.63042,-96.980795,13.2,17.6,189,992.96,-7.8,75,0.82,0.0,1021.89,148.9
2019-12-06 19:00,50.6304266666667,-96.9807866666667,14.0,18.6,194,992.87,-7.7,74,0.82,0.0,1021.77,252.3
2019-12-06 19:10,50.63043,-96.9807816666667,14.1,18.4,190,992.62,-7.7,75,0.82,0.0,1021.49,252.3
2019-12-06 19:20,50.6304516666667,-96.9807816666667,14.0,18.3,187,992.40,-7.5,74,0.81,0.0,1021.24,252.3
2019-12-06 19:30,50.63044,-96.980765,14.9,18.4,184,992.18,-7.3,74,0.81,0.0,1020.99,252.3
2019-12-06 19:40,50.6304416666667,-96.9807616666667,15.6,19.5,186,992.12,-7.3,74,0.81,0.0,1020.93,252.3
2019-12-06 19:50,50.6304416666667,-96.9807633333333,13.4,17.5,188,992.15,-7.3,75,0.82,0.0,1020.98,252.3
2019-12-06 20:00,50.630445,-96.980765,13.3,17.1,188,991.99,-7.2,75,0.82,0.0,1020.82,41.3
2019-12-06 20:10,50.6304416666667,-96.980765,13.2,17.2,188,991.82,-7.2,75,0.82,0.0,1020.63,41.3
2019-12-06 20:20,50.6304416666667,-96.9807666666667,11.7,16.6,190,991.77,-7.1,75,0.82,0.0,1020.56,41.3
2019-12-06 20:30,50.6304416666667,-96.9807683333333,11.7,14.5,182,991.50,-7.0,75,0.83,0.0,1020.26,41.3
2019-12-06 20:40,50.63044,-96.9808,12.2,16.2,183,991.40,-6.9,76,0.83,0.0,1020.14,41.3
2019-12-06 20:50,50.6304416666667,-96.9807566666667,14.4,19.3,186,991.22,-6.8,76,0.83,0.0,1019.95,41.3
2019-12-06 21:00,50.6304416666667,-96.9807633333333,14.5,18.0,184,991.23,-6.7,77,0.83,0.0,1019.95,18.9
2019-12-06 21:10,50.6304416666667,-96.9807633333333,14.3,18.7,190,991.22,-6.6,78,0.83,0.0,1019.93,18.9
2019-12-06 21:20,50.6304416666667,-96.980765,11.8,15.7,190,991.25,-6.5,79,0.84,0.0,1019.95,18.9
2019-12-06 21:30,50.6304416666667,-96.9807683333333,13.5,17.6,187,991.01,-6.6,79,0.84,0.0,1019.70,18.9
2019-12-06 21:40,50.6304433333333,-96.98077,13.6,18.5,189,990.99,-6.7,80,0.84,0.0,1019.68,18.9
2019-12-06 21:50,50.6304416666667,-96.9807716666667,12.6,18.4,194,991.04,-6.7,80,0.85,0.0,1019.73,18.9
2019-12-06 22:00,50.6304416666667,-96.9807716666667,11.3,15.8,191,991.13,-6.7,81,0.85,0.0,1019.83,41.2
2019-12-06 22:10,50.6304416666667,-96.9807733333333,11.8,14.9,191,991.20,-6.9,81,0.85,0.0,1019.90,41.2
2019-12-06 22:20,50.6304416666667,-96.980775,11.9,14.7,195,991.33,-7.1,82,0.85,0.0,1020.04,41.2
2019-12-06 22:30,50.6304416666667,-96.9807766666667,10.1,13.2,192,991.46,-7.2,83,0.85,0.0,1020.18,41.2
2019-12-06 22:40,50.6304416666667,-96.9807783333333,9.3,13.5,199,991.61,-7.2,83,0.85,0.0,1020.33,41.2
2019-12-06 22:50,50.6304433333333,-96.98077,9.1,12.4,196,991.70,-7.3,84,0.85,0.0,1020.42,41.2
2019-12-06 23:00,50.630445,-96.9807733333333,10.0,13.6,199,991.68,-7.3,85,0.86,0.0,1020.40,270.0
2019-12-06 23:10,50.630445,-96.980775,9.9,13.7,197,991.66,-7.5,85,0.86,0.0,1020.38,270.0
2019-12-06 23:20,50.630445,-96.980775,9.9,12.6,193,991.64,-7.6,86,0.86,0.0,1020.36,270.0
2019-12-06 23:30,50.6304433333333,-96.9807733333333,8.9,12.2,192,991.62,-7.8,87,0.86,0.0,1020.36,270.0
